Regional Weather Roundup
Issued by NWS

Home | Current Version | Previous Version | Graphics & Text | Print | Product List | Glossary On
Versions: 1 2 3 4 5 6 7 8 9 10 11 12 13 14 15 16 17 18 19 20 21 22 23 24 25 26 27 28 29 30 31 32 33 34 35 36 37 38 39 40 41 42 43 44 45 46 47 48 49 50
000
ASUS45 KBOI 221310
RWRID

IDAHO REGIONAL WEATHER ROUNDUP
NATIONAL WEATHER SERVICE BOISE ID
600 AM MST WED FEB 22 2017

NOTE: "FAIR" INDICATES FEW OR NO CLOUDS BELOW 12000 FEET
WITH NO SIGNIFICANT WEATHER AND/OR OBSTRUCTIONS TO VISIBILITY

IDZ012-014-221400-
SOUTHWEST IDAHO


CITY           SKY/WX    TMP DP  RH WIND       PRES   REMARKS
BOISE          PTCLDY    32  26  78 CALM      30.01F
CALDWELL       PTCLDY    31  27  85 CALM      30.03F
MOUNTAIN HOME  MOCLDY    31  31 100 CALM      30.01F
$$

IDZ016-017-221400-
SOUTHCENTRAL IDAHO


CITY           SKY/WX    TMP DP  RH WIND       PRES   REMARKS
BURLEY         PTCLDY    33  24  69 W5        30.00F WCI  29
JEROME           N/A    N/A N/A N/A MISG      30.00F
TWIN FALLS     PTCLDY    30  22  72 SW7       30.00F WCI  23
$$

IDZ019>023-221400-
SOUTHEAST IDAHO


CITY           SKY/WX    TMP DP  RH WIND       PRES   REMARKS
IDAHO FALLS    PTCLDY    30  27  88 S21G29    29.97F WCI  17
POCATELLO      PTCLDY    32  26  78 SW12      30.01S WCI  23
REXBURG        PTCLDY    29  26  89 SW14G24   29.95S WCI  18
$$

IDZ006-010-011-018-031-032-221400-
CENTRAL IDAHO MOUNTAINS


CITY           SKY/WX    TMP DP  RH WIND       PRES   REMARKS
MCCALL         PTCLDY    26  21  81 CALM      29.93S
HAILEY         CLEAR     21  18  86 NW9       29.99S WCI  11
STANLEY          N/A     21  18  88 S6        29.94S WCI  13
SALMON         MOCLDY    30  28  93 CALM      29.95S
CHALLIS        PTCLDY    25  18  74 CALM      29.93S
$$

IDZ002-004-006-007-026-221400-
NORTHERN IDAHO


CITY           SKY/WX    TMP DP  RH WIND       PRES   REMARKS
LEWISTON       CLOUDY    35  34  96 CALM      30.06S
LOWELL           N/A     32  31  96 CALM      30.07R
COEUR D`ALENE  MIX PCPN  32  32 100 CALM      30.02R FOG
MULLAN PASS    LGT SNOW  24  22  91 CALM      29.87S VSB 3/4
$$



USA.gov is the U.S. government's official web portal to all federal, state and local government web resources and services.